Location: Jackson
(42.2460°N, 84.4010°W)
Time: 19:08:44
(UTC-04:00)

Courier 1B Rocket - Pass Details

Date: 14 February 2026
Orbit: 920 x 1201 km, 28.2° (Epoch: 12 March)

Event Time Altitude Azimuth Distance (km) Brightness Sun altitude
Rises 20:18:25 0° 213° (SSW) 3,566 8.3 -24.5°
Reaches altitude 10° 20:22:21 10° 189° (S) 2,660 7.3 -25.2°
Enters shadow 20:24:34 14° 169° (S) 2,422 6.9 -25.6°
Maximum altitude 20:25:32 14° 159° (SSE) 2,405 - -25.8°
Drops below altitude 10° 20:28:47 10° 129° (SE) 2,742 - -26.4°
Sets 20:32:57 0° 106° (ESE) 3,757 - -27.2°
